Location: Newark
(13.6797°N, 8.5297°E)
Time: 00:49:30
(UTC+00:00)

SR - Pass Details

Date: 26 January 2020
Orbit: 575 x 880 km, 66.7° (Epoch: 26 February)

Event Time Altitude Azimuth Distance (km) Brightness Sun altitude
Rises 21:21:46 0° 240° (WSW) 3,299 - -56.9°
Reaches altitude 10° 21:25:10 10° 262° (W) 2,423 - -57.7°
Maximum altitude 21:28:25 16° 297° (WNW) 2,093 - -58.4°
Drops below altitude 10° 21:31:46 10° 333° (NNW) 2,499 - -59.2°
Sets 21:35:23 0° 354° (N) 3,460 - -60.1°
